Epoch = 2012 Dec. 19.0 TT T = 2012 Dec. 13.08878 TT Peri. = 215.64663 e = 0.8221860 Node = 284.12932 2000.0 q = 0.5302778 AU Incl. = 29.62731 a = 2.9822050 AU n = 0.19138057 P = 5.15 years
H = 17.6 G = 0.15